Hourly Weather Chabowko

Today, 25 June, Friday

Time Temperature Precipitation Wind Pressure Humidity
00:00 +14°C° 0 mm 1 mps 761 mmHg 94%
01:00 +14°C° 0 mm 1 mps 760 mmHg 94%
02:00 +14°C° 0 mm 1 mps 760 mmHg 94%
03:00 +14°C° 0 mm 1 mps 760 mmHg 95%
04:00 +13°C° 0 mm 0 mps 760 mmHg 95%
05:00 +15°C° 0 mm 1 mps 760 mmHg 91%
06:00 +18°C° 0 mm 1 mps 760 mmHg 87%
07:00 +18°C° 0 mm 2 mps 760 mmHg 84%
08:00 +19°C° 0.1 mm 2 mps 760 mmHg 77%
09:00 +20°C° 0.1 mm 2 mps 760 mmHg 71%
10:00 +23°C° 0.1 mm 2 mps 760 mmHg 64%
11:00 +23°C° 0.8 mm 2 mps 760 mmHg 64%
12:00 +23°C° 0.8 mm 2 mps 760 mmHg 64%
13:00 +24°C° 0.8 mm 2 mps 760 mmHg 64%
14:00 +24°C° 0.4 mm 2 mps 760 mmHg 61%
15:00 +24°C° 0.4 mm 2 mps 760 mmHg 59%
16:00 +24°C° 0.4 mm 2 mps 760 mmHg 57%
17:00 +23°C° 0.1 mm 2 mps 760 mmHg 61%
18:00 +23°C° 0.1 mm 2 mps 760 mmHg 65%
19:00 +21°C° 0.1 mm 3 mps 760 mmHg 69%
20:00 +19°C° 0 mm 3 mps 760 mmHg 77%
21:00 +17°C° 0 mm 2 mps 761 mmHg 85%
22:00 +15°C° 0 mm 2 mps 761 mmHg 93%
23:00 +15°C° 0 mm 2 mps 761 mmHg 93%

Tomorrow, 26 June, Saturday

Time Temperature Precipitation Wind Pressure Humidity
00:00 +14°C° 0 mm 2 mps 761 mmHg 93%
01:00 +14°C° 0 mm 1 mps 761 mmHg 93%
02:00 +14°C° 0 mm 1 mps 762 mmHg 93%
03:00 +14°C° 0 mm 1 mps 762 mmHg 93%
04:00 +13°C° 0 mm 1 mps 762 mmHg 93%
05:00 +15°C° 0 mm 1 mps 762 mmHg 86%
06:00 +16°C° 0 mm 2 mps 762 mmHg 80%
07:00 +18°C° 0 mm 2 mps 763 mmHg 73%
08:00 +19°C° 0 mm 2 mps 763 mmHg 65%
09:00 +21°C° 0 mm 2 mps 763 mmHg 56%
10:00 +22°C° 0 mm 3 mps 763 mmHg 47%
11:00 +24°C° 0 mm 3 mps 762 mmHg 44%
12:00 +25°C° 0 mm 3 mps 762 mmHg 40%
13:00 +25°C° 0 mm 3 mps 762 mmHg 37%
14:00 +25°C° 0 mm 3 mps 762 mmHg 37%
15:00 +25°C° 0 mm 3 mps 762 mmHg 37%
16:00 +26°C° 0 mm 3 mps 762 mmHg 37%
17:00 +24°C° 0 mm 3 mps 762 mmHg 45%
18:00 +22°C° 0 mm 3 mps 761 mmHg 52%
19:00 +21°C° 0 mm 3 mps 761 mmHg 60%
20:00 +19°C° 0 mm 2 mps 762 mmHg 67%
21:00 +17°C° 0 mm 2 mps 762 mmHg 74%
22:00 +15°C° 0 mm 2 mps 762 mmHg 81%
23:00 +14°C° 0 mm 1 mps 762 mmHg 82%

Day after tomorrow, 27 June, Sunday

Time Temperature Precipitation Wind Pressure Humidity
00:00 +14°C° 0 mm 1 mps 762 mmHg 84%
01:00 +14°C° 0 mm 1 mps 762 mmHg 86%
02:00 +13°C° 0 mm 1 mps 762 mmHg 86%
03:00 +13°C° 0 mm 1 mps 762 mmHg 87%
04:00 +12°C° 0 mm 0 mps 762 mmHg 87%
05:00 +14°C° 0 mm 0 mps 762 mmHg 81%
06:00 +16°C° 0 mm 0 mps 762 mmHg 74%
07:00 +18°C° 0 mm 0 mps 762 mmHg 68%
08:00 +21°C° 0 mm 1 mps 762 mmHg 63%
09:00 +23°C° 0 mm 1 mps 762 mmHg 58%
10:00 +24°C° 0 mm 1 mps 762 mmHg 53%
11:00 +25°C° 0 mm 1 mps 762 mmHg 49%
12:00 +26°C° 0 mm 2 mps 761 mmHg 46%
13:00 +27°C° 0 mm 2 mps 761 mmHg 43%
14:00 +27°C° 0 mm 2 mps 761 mmHg 42%
15:00 +27°C° 0 mm 2 mps 761 mmHg 41%
16:00 +28°C° 0 mm 2 mps 761 mmHg 40%
17:00 +26°C° 0 mm 2 mps 761 mmHg 45%
18:00 +25°C° 0 mm 2 mps 760 mmHg 51%
19:00 +24°C° 0 mm 2 mps 760 mmHg 57%
20:00 +21°C° 0 mm 2 mps 761 mmHg 63%
21:00 +19°C° 0 mm 2 mps 761 mmHg 70%
22:00 +17°C° 0 mm 2 mps 761 mmHg 77%
23:00 +17°C° 0 mm 2 mps 761 mmHg 79%

28 June, Monday

Time Temperature Precipitation Wind Pressure Humidity
00:00 +16°C° 0 mm 2 mps 761 mmHg 81%
01:00 +16°C° 0 mm 2 mps 761 mmHg 83%
02:00 +16°C° 0 mm 2 mps 761 mmHg 84%
03:00 +15°C° 0 mm 2 mps 761 mmHg 84%
04:00 +15°C° 0 mm 2 mps 761 mmHg 84%
05:00 +17°C° 0 mm 2 mps 761 mmHg 77%
06:00 +19°C° 0 mm 2 mps 761 mmHg 70%
07:00 +21°C° 0 mm 2 mps 761 mmHg 63%
08:00 +24°C° 0 mm 2 mps 761 mmHg 58%
09:00 +26°C° 0 mm 2 mps 760 mmHg 52%
10:00 +28°C° 0 mm 2 mps 760 mmHg 47%
11:00 +29°C° 0 mm 1 mps 760 mmHg 44%
12:00 +30°C° 0 mm 1 mps 760 mmHg 41%
13:00 +31°C° 0 mm 1 mps 760 mmHg 38%
14:00 +31°C° 0 mm 1 mps 759 mmHg 37%
15:00 +31°C° 0 mm 1 mps 759 mmHg 37%
16:00 +31°C° 0 mm 1 mps 759 mmHg 36%
17:00 +30°C° 0 mm 2 mps 759 mmHg 42%
18:00 +28°C° 0 mm 2 mps 758 mmHg 49%
19:00 +27°C° 0 mm 2 mps 758 mmHg 56%
20:00 +26°C° 0 mm 2 mps 758 mmHg 60%
21:00 +24°C° 0 mm 2 mps 758 mmHg 63%
22:00 +23°C° 0 mm 2 mps 758 mmHg 67%
23:00 +21°C° 0 mm 2 mps 758 mmHg 68%

29 June, Tuesday

Time Temperature Precipitation Wind Pressure Humidity
00:00 +21°C° 0 mm 2 mps 758 mmHg 69%
01:00 +20°C° 0 mm 3 mps 758 mmHg 70%
02:00 +20°C° 0 mm 3 mps 758 mmHg 72%
03:00 +19°C° 0 mm 3 mps 757 mmHg 73%
04:00 +19°C° 0 mm 3 mps 757 mmHg 75%
05:00 +20°C° 0 mm 3 mps 757 mmHg 70%
06:00 +22°C° 0 mm 4 mps 757 mmHg 65%
07:00 +23°C° 0 mm 4 mps 757 mmHg 60%
08:00 +26°C° 0 mm 5 mps 756 mmHg 55%
09:00 +27°C° 0 mm 5 mps 756 mmHg 50%
10:00 +28°C° 0 mm 6 mps 756 mmHg 44%
11:00 +29°C° 0 mm 6 mps 755 mmHg 42%
12:00 +30°C° 0 mm 6 mps 755 mmHg 40%
13:00 +32°C° 0 mm 6 mps 755 mmHg 38%
14:00 +32°C° 0 mm 6 mps 755 mmHg 41%
15:00 +32°C° 0 mm 6 mps 754 mmHg 43%
16:00 +32°C° 0 mm 5 mps 754 mmHg 46%
17:00 +29°C° 0 mm 5 mps 754 mmHg 51%
18:00 +28°C° 0 mm 4 mps 754 mmHg 57%
19:00 +27°C° 0 mm 4 mps 754 mmHg 63%
20:00 +25°C° 0 mm 3 mps 754 mmHg 72%
21:00 +22°C° 0 mm 3 mps 755 mmHg 81%
22:00 +20°C° 0 mm 3 mps 755 mmHg 91%
23:00 +19°C° 0 mm 3 mps 755 mmHg 93%

30 June, Wednesday

Time Temperature Precipitation Wind Pressure Humidity
00:00 +19°C° 0 mm 2 mps 755 mmHg 95%
01:00 +18°C° 0 mm 2 mps 755 mmHg 97%
02:00 +18°C° 0 mm 2 mps 755 mmHg 97%
03:00 +17°C° 0 mm 2 mps 755 mmHg 96%
04:00 +17°C° 0 mm 2 mps 755 mmHg 96%
05:00 +18°C° 0 mm 3 mps 755 mmHg 91%
06:00 +19°C° 0 mm 3 mps 755 mmHg 87%
07:00 +20°C° 0 mm 3 mps 755 mmHg 82%
08:00 +21°C° 0 mm 3 mps 756 mmHg 81%
09:00 +21°C° 0 mm 3 mps 756 mmHg 79%
10:00 +21°C° 0 mm 3 mps 756 mmHg 77%
11:00 +20°C° 0.3 mm 3 mps 756 mmHg 81%
12:00 +20°C° 0.3 mm 3 mps 756 mmHg 85%
13:00 +19°C° 0.3 mm 4 mps 757 mmHg 89%
14:00 +20°C° 0.4 mm 3 mps 757 mmHg 88%
15:00 +20°C° 0.4 mm 3 mps 757 mmHg 87%
16:00 +20°C° 0.4 mm 3 mps 757 mmHg 86%
17:00 +20°C° 0.1 mm 3 mps 757 mmHg 87%
18:00 +19°C° 0.1 mm 3 mps 757 mmHg 88%
19:00 +19°C° 0.1 mm 3 mps 758 mmHg 89%
20:00 +18°C° 0 mm 2 mps 758 mmHg 91%
21:00 +17°C° 0 mm 2 mps 758 mmHg 94%
22:00 +17°C° 0 mm 2 mps 758 mmHg 97%
23:00 +17°C° 0 mm 2 mps 758 mmHg 97%
Show more

We Need Your Consent

Meteoprog and our Service Providers may store and access personal data such as cookies, device identifiers or other similar technologies on your device and process such data to personalise content and ads, as well as provide social media features and to analyse the traffic.

  • Store and/or access information on your device

    Cookies, device identifiers or other information can be stored or accessed on your device for the purposes indicated above.

  • Personalised ads and content, ad and content measurement, audience insights, and products development

    Ads and content can be personalised based on a profile. More data can be added to better personalise ads and content. Ad and content performance can be measured. Insights about the audience who saw the ads and content can be derived. Such data can be used to develop or improve user’s experience, systems and software.

By clicking ‘I Agree’ you will allow the use of indicated cookies, device identifiers, web beacons or other similar technologies. Your settings can be changed in the browser on your device.

For certain purposes, legitimate interests may be relied on, rather than consent. You can read more about this in our Privacy and Cookie Policy.